Miscellaneous Local Product
Issued by NWS Hastings, NE

Home | Current Version | Previous Version | Text Only | Print | Product List | Glossary On
Versions: 1 2 3 4 5 6 7 8 9 10 11 12 13 14 15 16 17 18 19 20 21 22 23 24 25 26 27 28 29 30 31 32 33 34 35 36 37 38 39 40 41 42 43 44 45 46 47 48 49 50
000
AXUS43 KGID 311702
MISGRI

GID CWA HOURLY WEATHER ROUNDUP
NATIONAL WEATHER SERVICE HASTINGS NE
1200 PM CDT TUE MAY 31 2016

NOTE: "FAIR" INDICATES FEW OR NO CLOUDS BELOW 12,000 FEET WITH NO
SIGNIFICANT WEATHER AND/OR OBSTRUCTIONS TO VISIBILITY.

...SOUTH CENTRAL NEBRASKA...

CITY           SKY/WX    TMP DP  RH WIND       PRES   REMARKS
GRAND ISLAND   SUNNY     67  51  56 N12       30.02S
HASTINGS       PTSUNNY   67  53  61 N14       30.02R
KEARNEY        SUNNY     66  48  52 N14       30.04F
ORD            PTSUNNY   68  43  40 NW13      30.02S
YORK           CLOUDY    66  55  68 N12       30.00R
AURORA         PTSUNNY   66  53  62 N16       30.01S
LEXINGTON      MOSUNNY   65  48  54 N10G16    30.06F
HOLDREGE       SUNNY     64  48  55 N14       30.04F
HEBRON         CLOUDY    68  58  71 N9        29.99R

...NEBRASKA PANHANDLE...

CITY           SKY/WX    TMP DP  RH WIND       PRES   REMARKS
CHADRON        MOSUNNY   67  35  30 W23G30    30.04F
ALLIANCE       SUNNY     62  40  44 W10G18    30.08F
SCOTTSBLUFF    CLOUDY    61  39  44 W9G17     30.11F
SIDNEY         CLOUDY    53  42  66 N8        30.13F

...WESTERN AND NORTH CENTRAL NEBRASKA...

CITY           SKY/WX    TMP DP  RH WIND       PRES   REMARKS
VALENTINE      SUNNY     68  40  35 W20G31    29.99S
AINSWORTH      CLOUDY    64  44  48 SW14      30.01F
ONEILL         CLOUDY    64  42  45 NW6       30.01S
BROKEN BOW     CLOUDY    64  44  48 NW9       30.06R
IMPERIAL       SUNNY     61  44  53 N10       30.10F
NORTH PLATTE   PTSUNNY   64  46  52 NW8       30.09F
MCCOOK         SUNNY     66  47  50 N10G20    30.06F

...EASTERN NEBRASKA...

CITY           SKY/WX    TMP DP  RH WIND       PRES   REMARKS
NORFOLK        MOSUNNY   67  48  50 N15       29.98F
SO SIOUX CITY  MOSUNNY   70  57  63 NW16G22   29.96S
TEKAMAH        CLOUDY    69  59  70 NW12      29.95S
COLUMBUS       MOSUNNY   66  52  59 N13G20    30.00S
ALBION         MOSUNNY   66  46  49 N10G20    30.01S
OMAHA EPPLEY   CLOUDY    69  61  75 N14       29.94R
OFFUTT AFB     CLOUDY    69  61  77 NW9       29.93F
MILLARD        CLOUDY    68  60  74 NW13      29.95R
LINCOLN        CLOUDY    71  58  63 N10       29.97S
NEBRASKA CITY  CLOUDY    71  62  74 NW10      29.94S
BEATRICE       CLOUDY    70  59  68 N8        29.96F
FALLS CITY     LGT RAIN  75  61  61 CALM      29.92F

...NORTHERN KANSAS...

CITY           SKY/WX    TMP DP  RH WIND       PRES   REMARKS
GOODLAND       SUNNY     65  48  54 NE14      30.09S
HILL CITY      PTSUNNY   69  51  52 N15G23    30.04S
NORTON         SUNNY     68  48  49 N10       30.04S
PHILLIPSBURG   SUNNY     66  52  59 N13G21    30.03S
SMITH CENTER   SUNNY     66  55  68 N15       30.02R
BELOIT         PTSUNNY   61  50  67 N10       29.97S
HAYS           PTSUNNY   68  54  60 N18       30.00S
RUSSELL          N/A     67  59  75 N18       29.98R
CONCORDIA      PTSUNNY   71  60  68 NE6       29.97S
SALINA         PTSUNNY   70  62  76 NE6       29.97F
TOPEKA           N/A     74  61  63 CALM      29.94F



USA.gov is the U.S. government's official web portal to all federal, state and local government web resources and services.